#timestamp,LO_Frequency,Hit,StdDev 
1681462815.2,286047002.2,N
1681462835.1,286047001.9,N
1681462836.0,286047001.9,N
1681462855.8,286047001.5,N
1681462875.7,286047001.8,N
1681462895.5,286047002.3,N
1681462915.3,286047002.5,N
1681462935.2,286047002.4,N
1681462955.0,286046999.8,N
1681462955.9,286046999.8,N
1681462975.8,286047002.6,N
1681462995.6,286047002.0,N
1681463015.4,286047002.5,N
1681463035.3,286047002.4,N
1681463055.1,286047002.5,N
1681463075.8,286047002.6,N
1681463095.7,286047001.7,N
1681463115.5,286047004.3,Y
1681463135.4,286047001.8,P
1681463155.2,286047002.6,P
1681463175.0,286047000.1,N
1681463176.0,286047000.1,N
1681463195.8,286046999.8,N
1681463215.6,286047000.0,N
1681463235.5,286046999.8,N
1681463255.3,286047000.3,N
1681463275.1,286047002.5,N
1681463295.9,286047002.4,N
1681463315.7,286047002.0,N
1681463335.6,286047002.2,N
1681463355.4,286047001.5,N
1681463375.2,286047001.5,N
1681463395.1,286047004.4,Y
1681463396.0,286047004.4,P
1681463415.8,286046999.7,N
1681463435.7,286046999.8,N
1681463455.5,286047000.2,N
1681463475.3,286047000.1,N
1681463495.2,286047000.2,N
1681463515.0,286047002.6,N
1681463515.9,286047002.6,N
1681463535.8,286047002.0,N
1681463555.6,286047004.3,N
1681463575.4,286047002.0,N
1681463595.3,286047001.9,N
1681463615.1,286047002.3,N
1681463635.9,286047000.2,N
1681463655.7,286047002.4,N
1681463675.5,286047002.0,N
1681463695.4,286047001.8,N
1681463715.2,286047001.7,N
1681463735.0,286047001.3,N
1681463735.9,286047001.3,N
1681463755.8,286047004.3,Y
1681463775.6,286047000.9,P
1681463795.5,286046998.6,P
1681463815.3,286046999.4,N
1681463835.1,286046999.1,N
1681463855.9,286046998.2,N
1681463875.7,286046998.8,N
1681463895.6,286047001.0,N
1681463915.4,286047001.1,N
1681463935.2,286047000.7,N
1681463955.1,286047000.0,N
1681463956.0,286047000.0,N
1681463975.8,286046999.7,N
1681463995.7,286047002.7,N
1681464015.5,286046999.8,N
1681464035.3,286047002.3,N
1681464055.2,286047000.1,N
1681464075.0,286047000.8,N
1681464075.9,286047000.8,N
1681464095.7,286047001.2,N
1681464115.6,286047000.8,N
1681464135.4,286047000.5,N
1681464155.3,286047002.8,N
1681464175.1,286047002.1,N
1681464195.8,286047001.7,N
1681464215.7,286047002.0,N
1681464235.5,286047001.5,N
1681464255.4,286047001.6,N
1681464275.2,286047002.0,N
1681464295.0,286047001.6,N
1681464295.9,286047001.6,N
1681464315.8,286047001.7,N
1681464335.6,286047002.2,N
1681464355.5,286047001.5,N
1681464375.3,286047004.3,Y
1681464395.1,286047001.5,P
1681464415.9,286047002.4,P
1681464435.7,286047001.3,N
1681464455.6,286047002.0,Y
1681464475.4,286046999.0,P
1681464495.2,286046996.5,N
1681464515.1,286046999.3,N
1681464516.0,286046999.3,N
1681464535.8,286046998.7,N
1681464555.7,286046999.6,N
1681464575.5,286046996.5,N
1681464595.3,286046999.6,N
1681464615.2,286046998.7,N
1681464635.0,286046997.0,N
1681464635.9,286046997.0,N
1681464655.7,286046998.8,N
1681464675.6,286046998.7,N
1681464695.4,286046998.3,N
1681464715.3,286046998.7,N
1681464735.1,286046998.6,N
1681464736.0,286046998.6,N
1681464755.8,286046998.4,N
1681464775.7,286046998.3,N
1681464795.5,286046998.3,N
1681464815.3,286046998.2,N
1681464835.2,286046998.2,N
1681464855.0,286046998.6,N
1681464855.9,286046998.6,N
1681464875.8,286046996.6,Y
1681464895.6,286046998.1,P
1681464915.5,286047001.2,P
1681464935.3,286046999.9,N
1681464955.1,286047002.3,N
1681464975.9,286047000.0,N
1681464995.7,286047000.0,N
1681465015.5,286047002.8,N
1681465035.4,286047000.0,N
1681465055.2,286047000.4,N
1681465075.0,286047001.2,N
1681465076.0,286047001.2,N
1681465095.8,286047000.7,N
1681465115.6,286047000.7,N
1681465135.5,286047000.3,N
1681465155.3,286047000.7,N
1681465175.1,286046998.8,N
1681465195.9,286046998.4,N
1681465215.7,286047001.0,N
1681465235.6,286047000.7,N
1681465255.4,286047001.0,N
1681465275.2,286047002.5,N
1681465295.1,286047002.5,N
1681465296.0,286047002.5,N
1681465315.8,286047002.4,N
1681465335.7,286047002.8,N
1681465355.5,286047002.1,N
1681465375.3,286047002.3,N
1681465395.2,286047002.6,N
1681465415.0,286047002.0,N
1681465415.9,286047002.0,N
1681465435.8,286047002.6,N
1681465455.6,286047002.7,N
1681465475.5,286046999.7,N
1681465495.3,286047002.6,N
1681465515.1,286047002.3,N
1681465535.9,286046999.9,N
1681465555.7,286047000.4,N
1681465575.5,286047001.9,N
1681465595.4,286046999.9,N
1681465615.2,286047002.4,N
1681465635.1,286047000.9,N
1681465636.0,286047000.9,N
1681465655.8,286047000.1,N
1681465675.6,286047002.0,N
1681465695.5,286047002.2,N
1681465715.3,286047001.6,N
1681465735.2,286047002.1,N
1681465755.9,286047002.5,N
1681465775.7,286047002.0,N
1681465795.6,286047004.2,Y
1681465815.4,286047002.6,P
1681465835.2,286047002.2,P
1681465855.1,286047002.7,P
1681465856.0,286047002.7,Y
1681465875.8,286046998.9,P
1681465895.7,286046999.2,N
1681465915.5,286046998.8,N
1681465935.3,286046998.3,N
1681465955.2,286046998.5,N
1681465975.0,286047000.8,N
1681465975.9,286047000.8,N
1681465995.8,286046998.5,N
1681466015.6,286046999.0,N
1681466035.4,286046998.9,N
1681466055.3,286046998.3,N
1681466075.1,286046999.2,N
1681466095.9,286046996.6,N
1681466115.7,286046999.4,N
1681466135.5,286046998.5,N
1681466155.4,286046998.3,N
1681466175.2,286046998.3,N
1681466195.0,286046999.2,N
1681466196.0,286046999.2,N
1681466215.8,286046998.7,N
1681466235.6,286047000.7,N
1681466255.5,286047001.1,N
1681466275.3,286046999.8,N
1681466295.1,286046998.5,N
1681466315.9,286046998.5,N
1681466335.7,286047001.1,N
1681466355.6,286047001.2,N
1681466375.4,286046998.5,N
1681466395.2,286046999.6,N
